Regional Weather Roundup
Issued by NWS

Home | Current Version | Previous Version | Text Only | Print | Product List | Glossary On
Versions: 1 2 3 4 5 6 7 8 9 10 11 12 13 14 15 16 17 18 19 20 21 22 23 24 25 26 27 28 29 30 31 32 33 34 35 36 37 38 39 40 41 42 43 44 45 46 47 48 49 50
000
ASUS42 KFFC 270503
RWRGA
WEATHER ROUNDUP FOR GEORGIA
NATIONAL WEATHER SERVICE PEACHTREE CITY GA
100 AM EDT WED MAY 27 2015

NOTE: "FAIR" INDICATES FEW OR NO CLOUDS BELOW 12,000 FEET WITH NO
SIGNIFICANT WEATHER AND/OR OBSTRUCTIONS TO VISIBILITY.

* = USE WITH CAUTION. THE STATIONS MARKED WITH AN ASTERISK MAY NOT
REPORT WEATHER SUCH AS PRECIPITATION, FOG, OR THUNDER AND ARE NOT
QUALITY CONTROLLED BY NWS.

THE REMARK "TC" DENOTES TEMPERATURE READING IN DEGREES CELSIUS.

GAZ001>058-270600-
NORTH GEORGIA

CITY           SKY/WX    TMP DP  RH WIND       PRES   REMARKS
ATLANTA        MOCLDY    66  63  90 CALM      30.22F
ATHENS         CLOUDY    66  65  96 SE6       30.24R
CHAMBLEE       MOCLDY    64  63  96 CALM      30.23S
PEACHTREE CITY MOCLDY    66  64  93 CALM      30.22F
ROME           CLOUDY    66  65  96 SE6       30.21S
WEST ATLANTA   CLOUDY    65  64  97 E3        30.22F
GAINESVILLE    CLOUDY    65  64  97 NE3       30.27R
CARTERSVILLE   CLOUDY    66  63  90 CALM      30.22F


CITY           SKY/WX    TMP DP  RH WIND       PRES   REMARKS
DALTON*        MOCLDY    63  63 100 CALM      30.21F
MARIETTA       CLOUDY    65  65 100 SE5       30.23S
BLAIRSVILLE*     N/A     61  54  78 CALM      30.25F
$$

GAZ059>098-102>109-270600-
CENTRAL GEORGIA

CITY           SKY/WX    TMP DP  RH WIND       PRES   REMARKS
AUGUSTA-BUSH   LGT RAIN  68  67  96 SE8       30.21F
AUGUSTA-DANIEL LGT RAIN  70  67  90 E6        30.23F
COLUMBUS       CLEAR     68  66  93 CALM      30.19F
MACON          CLOUDY    68  67  96 NW3       30.21F
ROBINS AFB     CLOUDY    69  68  97 W5        30.20S


CITY           SKY/WX    TMP DP  RH WIND       PRES   REMARKS
LAGRANGE*      CLOUDY    71  71 100 CALM      30.21F
SYLVANIA*      CLOUDY    71  70  98 CALM      30.25F
MILLEDGEVILLE* CLOUDY    68  68 100 CALM      30.22S
$$

GAZ099>101-110>166-270600-
SOUTH GEORGIA

CITY           SKY/WX    TMP DP  RH WIND       PRES   REMARKS
SAVANNAH       CLOUDY    75  71  87 E3        30.25F
VALDOSTA       LGT RAIN  72  69  90 SE12      30.18F
ALMA           CLOUDY    70  69  97 E9        30.21F FOG
FT STEWART     CLOUDY    73  68  83 NW5       30.24S
ALBANY         CLOUDY    70  69  97 CALM      30.23R
HUNTER AFB     CLOUDY    75  75 100 E2        30.23F
MOODY AFB      CLOUDY    70  67  92 SE9       30.17F
BRUNSWICK      CLOUDY    73  70  88 CALM      30.26S


CITY           SKY/WX    TMP DP  RH WIND       PRES   REMARKS
BAINBRIDGE*    PTCLDY    72  70  94 E5        30.20R
MOULTRIE*      CLOUDY    70  68  94 SE3       30.22F
VIDALIA*       LGT RAIN  70  68  94 E5        30.23F
WAYCROSS*      CLOUDY    70  70 100 E3        30.23F
DOUGLAS*       CLOUDY    72  70  94 E6        30.21F
$$


USA.gov is the U.S. government's official web portal to all federal, state and local government web resources and services.